CW1309 Weather Reports


Display with metric or nautical units.
time (UTC)temp
F
wind
direction
speed
MPH
gust
MPH
rain 1hr
in
rain 24hr
in
rain mn
in
humidity
%
barometer
mb
20260901021540 90 97 2.0 7.0 0.00 0.00 0.00 72 1014.4
20260901020040 91 102 1.0 10.0 0.00 0.00 0.00 71 1014.1
20260901014545 91 94 0.0 1.0 0.00 0.00 0.00 67 1013.7
20260901013039 92 93 0.0 1.0 0.00 0.00 0.00 65 1013.6
20260901011538 93 108 0.0 0.0 0.00 0.00 0.00 65 1013.5
20260901010038 94 103 0.0 0.0 0.00 0.00 0.00 64 1013.4
20260901004541 94 104 0.0 4.0 0.00 0.00 0.00 63 1013.3
20260901003040 95 117 1.0 7.0 0.00 0.00 0.00 63 1013.4
20260901001549 96 99 1.0 8.0 0.00 0.00 0.00 63 1013.1
20260901000035 97 106 0.0 7.0 0.00 0.00 0.00 62 1013.0
20260831234538 98 115 2.0 9.0 0.00 0.00 0.00 61 1012.9
20260831233034 98 141 0.0 2.0 0.00 0.00 0.00 58 1012.7
20260831231534 98 96 3.0 12.0 0.00 0.00 0.00 58 1012.8
20260831230034 100 111 0.0 9.0 0.00 0.00 0.00 57 1012.8
20260831224532 99 107 0.0 8.0 0.00 0.00 0.00 56 1012.9
20260831223032 100 111 0.0 3.0 0.00 0.00 0.00 56 1012.9
20260831221630 99 100 0.0 3.0 0.00 0.00 0.00 56 1013.0
20260831214526 101 163 0.0 4.0 0.00 0.00 0.00 55 1013.4
20260831213023 101 117 0.0 3.0 0.00 0.00 0.00 55 1013.7
20260831211522 99 360 0.0 11.0 0.00 0.00 0.00 57 1013.9
20260831210019 99 76 0.0 6.0 0.00 0.00 0.00 57 1014.0
20260831204520 100 164 1.0 7.0 0.00 0.00 0.00 58 1014.5
20260831203021 100 96 0.0 0.0 0.00 0.00 0.00 59 1014.7
20260831201513 99 135 0.0 7.0 0.00 0.00 0.00 59 1015.0
20260831200012 98 114 0.0 9.0 0.00 0.00 0.00 60 1015.1
20260831194507 98 91 2.0 8.0 0.00 0.00 0.00 60 1015.5
20260831193006 97 112 2.0 7.0 0.00 0.00 0.00 63 1015.7
20260831191503 97 193 5.0 9.0 0.00 0.00 0.00 64 1016.0
20260831184554 95 165 5.0 10.0 0.00 0.00 0.00 67 1016.5
20260831183050 94 117 3.0 12.0 0.00 0.00 0.00 68 1016.6
20260831181552 93 149 0.0 8.0 0.00 0.00 0.00 70 1016.9
20260831180044 92 177 0.0 6.0 0.00 0.00 0.00 71 1016.9
20260831174539 92 234 7.0 17.0 0.00 0.00 0.00 72 1017.1
20260831173037 92 138 2.0 8.0 0.00 0.00 0.00 74 1017.4
20260831171535 91 202 4.0 10.0 0.00 0.00 0.00 75 1017.7
20260831170033 91 192 0.0 8.0 0.00 0.00 0.00 75 1017.7
20260831164530 90 164 3.0 10.0 0.00 0.00 0.00 78 1017.7
20260831163028 90 141 0.0 6.0 0.00 0.00 0.00 79 1017.6
20260831161525 89 181 3.0 9.0 0.00 0.00 0.00 81 1017.8
20260831160022 87 200 3.0 9.0 0.00 0.00 0.00 84 1017.7
20260831154521 87 207 1.0 8.0 0.00 0.00 0.00 85 1017.8
20260831153017 85 205 5.0 10.0 0.00 0.00 0.00 88 1017.7
20260831151519 84 209 3.0 7.0 0.00 0.00 0.00 91 1017.6
20260831150012 84 167 3.0 8.0 0.00 0.00 0.00 92 1017.6
20260831144613 84 205 2.0 10.0 0.00 0.00 0.00 92 1017.5
20260831143010 84 117 1.0 4.0 0.00 0.00 0.00 94 1017.5
20260831141506 82 166 1.0 3.0 0.00 0.00 0.00 96 1017.4
20260831140006 81 119 1.0 4.0 0.00 0.00 0.00 98 1017.2
20260831134503 80 99 1.0 6.0 0.00 0.00 0.00 99 1017.2
20260831133001 79 98 2.0 4.0 0.00 0.00 0.00 100 1017.0
20260831131620 78 103 1.0 3.0 0.00 0.00 0.00 100 1016.9
20260831130059 77 104 0.0 1.0 0.00 0.00 0.00 100 1016.7
20260831124602 77 107 1.0 3.0 0.00 0.00 0.00 100 1016.7
20260831123056 77 130 0.0 0.0 0.00 0.00 0.00 100 1016.5
20260831121608 77 130 0.0 0.0 0.00 0.00 0.00 100 1016.4
20260831120054 77 130 0.0 1.0 0.00 0.00 0.00 100 1016.4
20260831114555 77 130 0.0 0.0 0.00 0.00 0.00 100 1016.3
20260831113053 77 130 0.0 2.0 0.00 0.00 0.00 100 1016.2
20260831111556 77 130 0.0 2.0 0.00 0.00 0.00 100 1016.3
20260831110059 77 130 0.0 2.0 0.00 0.00 0.00 100 1016.3
20260831104550 77 160 0.0 2.0 0.00 0.00 0.00 99 1016.2
20260831103053 78 161 1.0 3.0 0.00 0.00 0.00 99 1016.1
20260831101553 78 161 0.0 0.0 0.00 0.00 0.00 99 1016.2
20260831100047 78 161 0.0 0.0 0.00 0.00 0.00 99 1016.3
20260831094547 78 161 0.0 0.0 0.00 0.00 0.00 99 1016.3
20260831093046 78 161 0.0 0.0 0.00 0.00 0.00 99 1016.1
20260831091548 78 161 0.0 0.0 0.00 0.00 0.00 98 1016.1
20260831090045 78 161 0.0 0.0 0.00 0.00 0.00 98 1016.2
20260831084545 78 161 0.0 1.0 0.00 0.00 0.00 98 1016.1
20260831083142 78 161 0.0 0.0 0.00 0.00 0.00 97 1016.2
20260831081542 78 161 0.0 2.0 0.00 0.00 0.00 97 1016.2
20260831080039 79 161 0.0 0.0 0.00 0.00 0.00 96 1016.3
20260831074539 79 161 0.0 1.0 0.00 0.00 0.00 96 1016.2
20260831073037 79 161 0.0 1.0 0.00 0.00 0.00 96 1016.2
20260831071540 79 161 0.0 2.0 0.00 0.00 0.00 95 1016.5
20260831070034 80 161 0.0 0.0 0.00 0.00 0.00 94 1016.7
20260831064534 80 161 0.0 1.0 0.00 0.00 0.00 94 1016.7
20260831063036 80 169 0.0 3.0 0.00 0.00 0.00 93 1016.5
20260831061528 80 177 0.0 5.0 0.00 0.00 0.00 92 1016.4
20260831060029 81 162 0.0 3.0 0.00 0.00 0.00 92 1016.2
20260831054525 81 157 1.0 4.0 0.00 0.00 0.00 91 1016.2
20260831053024 82 147 0.0 5.0 0.00 0.00 0.00 90 1016.2
20260831051529 82 161 2.0 5.0 0.00 0.00 0.00 89 1016.1
20260831050018 82 158 1.0 6.0 0.00 0.00 0.00 88 1016.0
20260831044518 83 170 2.0 7.0 0.00 0.00 0.00 87 1016.0
20260831043019 83 169 2.0 5.0 0.00 0.00 0.00 86 1015.8
20260831041516 84 163 2.0 7.0 0.00 0.00 0.00 85 1016.0
20260831040032 85 158 3.0 7.0 0.00 0.00 0.00 84 1016.0
20260831034516 85 122 2.0 8.0 0.00 0.00 0.00 83 1015.8
20260831033014 86 163 2.0 6.0 0.00 0.00 0.00 82 1015.6
20260831031514 86 136 3.0 9.0 0.00 0.00 0.00 81 1015.4
20260831030013 87 187 1.0 5.0 0.00 0.00 0.00 80 1015.2
20260831024513 88 155 3.0 5.0 0.00 0.00 0.00 79 1014.9
20260831023014 89 165 2.0 7.0 0.00 0.00 0.00 77 1014.6